Location: Mentone
(34.5413°N, 85.5351°W)
Time: 16:25:29
(UTC-05:00)

UOSAT-12 - Visible Passes

Search period start: 21 September 2017 00:00
Search period end: 01 October 2017 00:00
Orbit: 597 x 656 km, 64.6° (Epoch: 21 September)

Date Brightness Start Highest point End Pass type
(mag) Time Alt. Az. Time Alt. Az. Time Alt. Az.
28 Sep 9.7 20:59:16 10° N 21:00:00 14° N 21:00:00 14° N visible
29 Sep 9.8 21:18:37 10° NNW 21:19:24 15° NNW 21:19:24 15° NNW visible
30 Sep 9.1 19:59:39 10° N 20:01:35 15° NNE 20:01:35 15° NNE visible
30 Sep 10.1 21:38:26 10° NW 21:38:53 13° NW 21:38:53 13° NW visible
